| time (UTC) | temp F | wind direction | speed knots | gust knots | rain 1hr in | rain 24hr in | rain mn in | humidity % | barometer mb |
| 20260504204538 | 55 | 331 | 15.6 | 0.0 | 0.00 | 0.00 | 0.00 | 31 | 1014.4 |
| 20260504203029 | 55 | 340 | 19.1 | 0.0 | 0.00 | 0.00 | 0.00 | 30 | 1014.4 |
| 20260504201529 | 55 | 325 | 17.4 | 0.0 | 0.00 | 0.00 | 0.00 | 31 | 1014.2 |
| 20260504200027 | 56 | 314 | 16.5 | 0.0 | 0.00 | 0.00 | 0.00 | 31 | 1013.9 |
| 20260504194526 | 57 | 311 | 16.5 | 0.0 | 0.00 | 0.00 | 0.00 | 30 | 1014.0 |
| 20260504193024 | 57 | 318 | 19.1 | 0.0 | 0.00 | 0.00 | 0.00 | 31 | 1014.0 |
| 20260504191526 | 55 | 342 | 14.8 | 0.0 | 0.00 | 0.00 | 0.00 | 33 | 1013.8 |
| 20260504190027 | 55 | 313 | 16.5 | 0.0 | 0.00 | 0.00 | 0.00 | 33 | 1013.8 |
| 20260504184522 | 56 | 335 | 18.2 | 0.0 | 0.00 | 0.00 | 0.00 | 32 | 1014.0 |
| 20260504183020 | 55 | 340 | 18.2 | 0.0 | 0.00 | 0.00 | 0.00 | 34 | 1013.8 |
| 20260504181520 | 56 | 328 | 16.5 | 0.0 | 0.00 | 0.00 | 0.00 | 33 | 1013.9 |
| 20260504180016 | 55 | 304 | 14.8 | 0.0 | 0.00 | 0.00 | 0.00 | 34 | 1014.0 |
| 20260504174516 | 55 | 333 | 13.0 | 0.0 | 0.00 | 0.00 | 0.00 | 37 | 1014.0 |
| 20260504173011 | 55 | 303 | 13.0 | 0.0 | 0.00 | 0.00 | 0.00 | 37 | 1014.0 |
| 20260504171509 | 54 | 333 | 13.9 | 0.0 | 0.00 | 0.00 | 0.00 | 39 | 1013.9 |
| 20260504081505 | 50 | 27 | 13.9 | 0.0 | 0.00 | 0.00 | 0.00 | 51 | 1014.8 |
| 20260504044537 | 59 | 40 | 18.2 | 0.0 | 0.00 | 0.00 | 0.00 | 36 | 1009.5 |
| 20260504043040 | 59 | 38 | 10.4 | 0.0 | 0.00 | 0.00 | 0.00 | 36 | 1008.8 |
| 20260504041532 | 59 | 31 | 9.6 | 0.0 | 0.00 | 0.00 | 0.00 | 35 | 1008.4 |
| 20260504040030 | 60 | 43 | 13.0 | 0.0 | 0.00 | 0.00 | 0.00 | 35 | 1008.0 |
| 20260504034530 | 60 | 27 | 12.2 | 0.0 | 0.00 | 0.00 | 0.00 | 35 | 1007.7 |
| 20260504033029 | 61 | 38 | 12.2 | 0.0 | 0.00 | 0.00 | 0.00 | 35 | 1007.4 |
| 20260504031529 | 62 | 26 | 14.8 | 0.0 | 0.00 | 0.00 | 0.00 | 34 | 1007.2 |
| 20260504030029 | 64 | 31 | 13.0 | 0.0 | 0.00 | 0.00 | 0.00 | 30 | 1006.8 |
| 20260504024529 | 64 | 22 | 9.6 | 0.0 | 0.00 | 0.00 | 0.00 | 26 | 1006.2 |
| 20260504023028 | 66 | 40 | 5.2 | 0.0 | 0.00 | 0.00 | 0.00 | 23 | 1006.0 |
| 20260504021532 | 69 | 35 | 7.0 | 0.0 | 0.00 | 0.00 | 0.00 | 22 | 1005.9 |
| 20260504020035 | 70 | 14 | 9.6 | 0.0 | 0.00 | 0.00 | 0.00 | 21 | 1006.0 |
| 20260504014534 | 71 | 360 | 9.6 | 0.0 | 0.00 | 0.00 | 0.00 | 20 | 1006.1 |
| 20260504013025 | 73 | 360 | 11.3 | 0.0 | 0.00 | 0.00 | 0.00 | 20 | 1006.1 |
| 20260504011524 | 74 | 13 | 12.2 | 0.0 | 0.00 | 0.00 | 0.00 | 19 | 1006.2 |
| 20260504010023 | 74 | 9 | 11.3 | 0.0 | 0.00 | 0.00 | 0.00 | 19 | 1006.3 |
| 20260504004522 | 75 | 340 | 10.4 | 0.0 | 0.00 | 0.00 | 0.00 | 19 | 1006.3 |
| 20260504003020 | 75 | 5 | 13.0 | 0.0 | 0.00 | 0.00 | 0.00 | 19 | 1006.5 |
| 20260504001520 | 76 | 338 | 13.0 | 0.0 | 0.00 | 0.00 | 0.00 | 18 | 1006.6 |
| 20260504000020 | 76 | 344 | 12.2 | 0.0 | 0.00 | 0.00 | 0.00 | 18 | 1006.7 |
| 20260503234521 | 76 | 344 | 10.4 | 0.0 | 0.00 | 0.00 | 0.00 | 17 | 1006.7 |
| 20260503233017 | 77 | 327 | 8.7 | 0.0 | 0.00 | 0.00 | 0.00 | 17 | 1006.7 |
| 20260503231520 | 77 | 319 | 7.8 | 0.0 | 0.00 | 0.00 | 0.00 | 17 | 1006.8 |
| 20260503230017 | 77 | 264 | 7.0 | 0.0 | 0.00 | 0.00 | 0.00 | 16 | 1007.1 |
| 20260503224513 | 77 | 338 | 9.6 | 0.0 | 0.00 | 0.00 | 0.00 | 16 | 1007.2 |
| 20260503223011 | 76 | 331 | 8.7 | 0.0 | 0.00 | 0.00 | 0.00 | 16 | 1007.4 |
| 20260503221508 | 76 | 289 | 10.4 | 0.0 | 0.00 | 0.00 | 0.00 | 16 | 1007.8 |
| 20260503220006 | 76 | 263 | 7.0 | 0.0 | 0.00 | 0.00 | 0.00 | 17 | 1008.0 |
| 20260503214518 | 75 | 296 | 8.7 | 0.0 | 0.00 | 0.00 | 0.00 | 17 | 1008.0 |
| 20260503213002 | 75 | 300 | 7.8 | 0.0 | 0.00 | 0.00 | 0.00 | 17 | 1008.4 |
| 20260503211613 | 75 | 282 | 10.4 | 0.0 | 0.00 | 0.00 | 0.00 | 16 | 1008.8 |
| 20260503210057 | 74 | 254 | 9.6 | 0.0 | 0.00 | 0.00 | 0.00 | 17 | 1009.0 |